TimeCDT,TemperatureF,Dew PointF,Humidity,Sea Level PressureIn,VisibilityMPH,Wind Direction,Wind SpeedMPH,Gust SpeedMPH,PrecipitationIn,Events,Conditions,WindDirDegrees,DateUTC
12:53 AM,35.1,23.0,61,30.14,10.0,SW,5.8,-,N/A,,Clear,220,2012-10-08 05:53:00
1:53 AM,34.0,23.0,64,30.14,10.0,SW,9.2,-,N/A,,Clear,230,2012-10-08 06:53:00
2:53 AM,34.0,21.9,61,30.13,10.0,SW,8.1,-,N/A,,Clear,220,2012-10-08 07:53:00
3:53 AM,34.0,21.9,61,30.13,10.0,SW,9.2,-,N/A,,Clear,230,2012-10-08 08:53:00
4:53 AM,34.0,23.0,64,30.13,10.0,SW,8.1,-,N/A,,Clear,220,2012-10-08 09:53:00
5:53 AM,35.1,23.0,61,30.13,10.0,SW,11.5,-,N/A,,Clear,220,2012-10-08 10:53:00
6:53 AM,36.0,23.0,59,30.13,10.0,SW,11.5,-,N/A,,Clear,230,2012-10-08 11:53:00
7:53 AM,37.9,24.1,57,30.13,10.0,SW,13.8,-,N/A,,Clear,230,2012-10-08 12:53:00
8:53 AM,43.0,26.1,51,30.14,10.0,SW,15.0,21.9,N/A,,Clear,220,2012-10-08 13:53:00
9:53 AM,50.0,27.0,41,30.12,10.0,SW,15.0,23.0,N/A,,Clear,220,2012-10-08 14:53:00
10:53 AM,54.0,27.0,35,30.10,10.0,SSW,17.3,26.5,N/A,,Clear,200,2012-10-08 15:53:00
11:53 AM,55.9,27.0,33,30.09,10.0,SW,19.6,28.8,N/A,,Clear,220,2012-10-08 16:53:00
12:53 PM,57.9,27.0,31,30.06,10.0,SW,19.6,25.3,N/A,,Clear,230,2012-10-08 17:53:00
1:53 PM,59.0,27.0,29,30.03,10.0,South,13.8,29.9,N/A,,Clear,190,2012-10-08 18:53:00
2:53 PM,60.1,27.0,28,30.01,4.0,SSW,18.4,28.8,N/A,,Haze,200,2012-10-08 19:53:00
3:53 PM,59.0,25.0,27,29.99,10.0,SSW,18.4,25.3,N/A,,Clear,200,2012-10-08 20:53:00
4:53 PM,57.9,26.1,30,29.98,10.0,SSW,16.1,29.9,N/A,,Clear,210,2012-10-08 21:53:00
5:53 PM,55.9,27.0,33,29.98,10.0,SSW,16.1,-,N/A,,Partly Cloudy,210,2012-10-08 22:53:00
6:53 PM,55.0,27.0,34,29.99,10.0,SSW,10.4,19.6,N/A,,Clear,200,2012-10-08 23:53:00
7:53 PM,54.0,28.0,37,29.99,10.0,South,10.4,-,N/A,,Clear,180,2012-10-09 00:53:00
9:53 PM,53.1,30.0,41,29.99,10.0,SSW,17.3,23.0,N/A,,Clear,210,2012-10-09 02:53:00
10:53 PM,52.0,30.0,43,29.99,10.0,SSW,11.5,20.7,N/A,,Clear,200,2012-10-09 03:53:00
11:53 PM,52.0,30.9,45,29.97,10.0,SSW,13.8,21.9,N/A,,Overcast,200,2012-10-09 04:53:00